Tracking 20942 objects as of 11-Jul-2020
HD Live streaming from Space Station
objects crossing your sky now

THOR ABLESTAR DEB

Track THOR ABLESTAR DEB now!
10-day predictions


NORAD ID: 13511
Int'l Code: 1961-015KU
Perigee: 932.9 km
Apogee: 1,105.6 km
Inclination: 65.8 °
Period: 105.4 minutes
Semi major axis: 7390 km
RCS: 0.0083 m2 (small)
Launch date: June 29, 1961
Source: United States (US)
Launch site: AIR FORCE EASTERN TEST RANGE (AFETR)

Note: This is SATELLITE DEBRIS
aabbcc
Your satellite tracking list
Your tracking list is empty




NASA's NSSDC Master Catalog

Two Line Element Set (TLE):
1 13511U 61015KU  20192.83350256 +.00000035 +00000-0 +13078-3 0  9990
2 13511 065.8427 103.7076 0116863 153.6680 268.3709 13.66519828994885
Source of the keplerian elements: AFSPC